METAR Formatted Surface Weather Observation
Issued by NWS

Home | Current Version | Previous Version | Text Only | Print | Product List | Glossary On
Versions: 1 2 3 4 5 6 7 8 9 10 11 12 13 14 15 16 17 18 19 20 21 22 23 24 25
000
SAUS45 KPSR 260558
MTRFHU
METAR KFHU 260556Z AUTO VRB05KT 10SM SCT095 20/09 A3018 RMK AO2
SLP159 T02000094 10278 20200 55000 $



USA.gov is the U.S. government's official web portal to all federal, state and local government web resources and services.